SCOUT A R/B, 1865

Orbit data source: Space-Track

SCOUT A R/B, 1865 is space debris in LEO originally from a launch on Wed, 22 Dec 1965 UTC launched from the Air Force Western Test Range (AFWTR). Debris objects in space refer to the collection of defunct objects orbiting the Earth. Examples of debris include non-operational satellites, rocket bodies, and fragments generated from explosions, collisions, or faulty payload assembly.

Loading next visibility...
Identifier
1865, 1965-109B
Orbit
LEO
Country
Flag of USUS
Related business
Manufacturer
ABL
Mission
Spacecraft
Bus & Motor
ALTAIR, Unknown motor
Mass
33 kg wet, 33 kg dry
Launch date (UTC)
1965-12-22 (60 years ago)
Launch vehicle
Unknown
Launch site
Air Force Western Test Range (AFWTR)
Object type
Payload
Rocket body
Debris
Shape & HBR
Unknown
Radar Cross Section
Medium (>0.1 m² and <1 m²)

Expand to show TLE details & history
Last TLE update: 8 hours ago

TLE from 8 hours ago
0 SCOUT A R/B
1 01865U 65109B   26105.88653108  .00000100  00000-0  84632-4 0  9992
2 01865  89.0650 255.1598 0111914 172.6809 187.6024 13.76821698 25067
Epoch: 2026-04-15T21:16Z
TLE epoch observation values (Epoch: 2026-04-15T21:16:36.285Z)
Latitude
-0.00001°
Longitude
91.96662°
Altitude
1,059.776 km
Speed
7.281 km/s
True Right ascension
17h 00m 38s
True Declination
0° 00' 00"
Sunlit
Object was in full shadow at epoch
Visualization orbit readout
Latitude
Unknown
Longitude
Unknown
Altitude
Unknown
Speed
Unknown
Apparent Right ascension
Unknown
Apparent Declination
Unknown
Sunlit
N/A
Visualization observer readout
Local Sidereal Time
12:22:30
Azimuth
Unknown
Elevation
Unknown
Doppler factor
Unknown
Orbital elements
Apogee altitude
1,054.455 km
Perigee altitude
889.934 km
Semi-major axis
7,350.331 km
Eccentricity
0.01119
Inclination
89.065°
RAAN
255.1598°
Arg. of periapsis
172.6809°
True anomaly
187.43506°
Mean anomaly
187.6024°
Eccentric anomaly
187.5185°
Mean motion
3.44416 °/min
Orbital period
104.52 mins
BSTAR
0.000084632
Loading maneuver chart data...
Computing Atmospheric mass density...
Loading historical data...
Loading historical data...
Loading historical data...
Loading historical data...
Loading historical data...
Loading historical data...
Loading historical data...

Documentation

Showing up to 5 results
|